This is the latest recevied weather packets stored in our database for station/object KD8OZS. If no packets are shown the sender has not sent any weather packets the latest 10 day(s).
| Time | Temp. | Humidity | Pressure | Rain* | Wind** | Luminosity | Snow |
|---|---|---|---|---|---|---|---|
| 1787960086 | 22.78° C | 59% | 1013.2 hPa | 0 mm | - | 16 W/m² | - |
| 1787959780 | 22.22° C | 59% | 1013.4 hPa | 0 mm | - | 18 W/m² | - |
| 1787959476 | 22.22° C | 60% | 1013.5 hPa | 0 mm | - | 20 W/m² | - |
| 1787959171 | 22.78° C | 58% | 1013.3 hPa | 0 mm | - | 22 W/m² | - |
| 1787958866 | 22.78° C | 56% | 1013.2 hPa | 0 mm | - | 23 W/m² | - |
| 1787958561 | 23.33° C | 55% | 1013.3 hPa | 0 mm | - | 25 W/m² | - |
| 1787958256 | 23.33° C | 54% | 1013.1 hPa | 0 mm | - | 26 W/m² | - |
| 1787957950 | 23.33° C | 55% | 1013.4 hPa | 0 mm | - | 28 W/m² | - |
| 1787957649 | 23.89° C | 56% | 1013.3 hPa | 0 mm | - | 30 W/m² | - |
| 1787957345 | 23.89° C | 56% | 1013.2 hPa | 0 mm | - | 32 W/m² | - |
| 1787957044 | 23.89° C | 55% | 1013.2 hPa | 0 mm | - | 33 W/m² | - |
| 1787956743 | 23.89° C | 55% | 1013.4 hPa | 0 mm | - | 34 W/m² | - |
| 1787956439 | 23.89° C | 56% | 1013.1 hPa | 0 mm | - | 35 W/m² | - |
| 1787956134 | 24.44° C | 58% | 1013.3 hPa | 0 mm | - | 37 W/m² | - |
| 1787955829 | 24.44° C | 57% | 1013.3 hPa | 0 mm | - | 38 W/m² | - |
| 1787955525 | 24.44° C | 59% | 1013.3 hPa | 0 mm | - | 39 W/m² | - |
| 1787955224 | 24.44° C | 60% | 1013.5 hPa | 0 mm | - | 41 W/m² | - |
| 1787954919 | 24.44° C | 61% | 1013.3 hPa | 0 mm | - | 43 W/m² | - |
| 1787954615 | 24.44° C | 60% | 1013.2 hPa | 0 mm | - | 45 W/m² | - |
| 1787954314 | 24.44° C | 59% | 1013.3 hPa | 0 mm | - | 45 W/m² | - |
| 1787954010 | 24.44° C | 59% | 1013.2 hPa | 0 mm | - | 47 W/m² | - |
| 1787953708 | 24.44° C | 60% | 1013.1 hPa | 0 mm | - | 49 W/m² | - |
| 1787953404 | 24.44° C | 61% | 1013.1 hPa | 0 mm | - | 54 W/m² | - |
| 1787953102 | 25° C | 60% | 1013.1 hPa | 0 mm | - | 77 W/m² | - |
| 1787952801 | 25° C | 59% | 1013.1 hPa | 0 mm | - | 242 W/m² | - |
* Rain latest hour (hover to see other rain measurements)
** Current wind speed in m/s (hover to see current wind gust speed)